[[{"header":{"parameterUnit":"m.s-1","parameterCategory":2,"la1":30.2991,"la2":30.254,"lo1":-89.0895,"lo2":-89.0444,"dy":0.0017,"dx":0.0017,"nx":28,"ny":28,"refTime":"2024-05-10T09:00:00:Z","depth":"0","parameterNumber":2,"parameterNumberName":"U-component_of_CURRENTS"},"data":[0,0,0,0,0,0,0,0,0,0,0,0,0,0,0,0,0,0,0,0,0,0,0,0,0,0,0,0,0,0,0,0,0,0,0,0,0,0,0,0,0,0,0,0,0,0,0,0,0,0,0,0,0,0,0,0,0,0,-0.3477,-0.3478,0,-0.352,-0.352,-0.3521,-0.3476,-0.3475,-0.3473,-0.3472,-0.3424,-0.3424,-0.3424,0,0,0,0,0,0,0,0,0,0,0,0,0,-0.3357,-0.336,-0.3477,-0.3478,-0.3479,-0.352,-0.352,-0.3521,-0.3476,-0.3475,-0.3473,-0.3471,-0.3424,-0.3424,-0.3424,0,0,0,0,0,0,0,0,0,0,0,0,0,-0.3403,-0.336,-0.3477,-0.3464,-0.3463,-0.352,-0.352,-0.3521,-0.3477,-0.3475,-0.3473,-0.3471,-0.3424,-0.3424,-0.3424,-0.3468,0,0,-0.3425,-0.3425,0,0,0,0,0,0,0,0,-0.34,-0.3407,-0.3465,-0.3465,-0.3465,-0.3494,-0.3461,-0.35,-0.3477,-0.3468,-0.3472,-0.347,-0.3443,-0.3441,-0.3451,-0.3465,-0.3463,-0.3425,-0.3425,-0.3425,-0.3425,0,0,0,0,0,0,0,-0.3397,-0.3405,-0.3491,-0.3466,-0.3466,-0.3457,-0.346,-0.3468,-0.3463,-0.3469,-0.3467,-0.3477,-0.3441,-0.3451,-0.3449,-0.3463,-0.3425,-0.3425,-0.3425,-0.3425,-0.3483,-0.3484,0,0,0,0,0,0,-0.3401,-0.3402,-0.3489,-0.3492,-0.343,-0.3461,-0.3465,-0.3484,-0.3465,-0.3461,-0.3479,-0.3475,-0.3452,-0.3449,-0.3447,-0.3475,-0.3425,-0.3425,-0.3425,-0.3481,-0.3483,-0.3485,0,0,0,0,0,0,-0.3399,-0.3409,-0.3488,-0.345,-0.3459,-0.3466,-0.3487,-0.3486,-0.3486,-0.3474,-0.3468,-0.3479,-0.345,-0.3447,-0.3455,-0.3473,-0.3425,-0.3425,-0.3479,-0.3482,-0.3484,-0.3545,0,0,0,0,0,0,-0.3395,-0.3408,-0.3417,-0.3451,-0.3462,-0.3519,-0.3489,-0.3488,-0.3498,-0.3493,-0.3473,-0.3466,-0.3448,-0.3455,-0.3455,-0.3472,-0.3425,-0.3478,-0.348,-0.3483,-0.3541,-0.3549,-0.3556,0,0,0,0,0,-0.3391,-0.3411,-0.3417,-0.3427,-0.3476,-0.3521,-0.3525,-0.3519,-0.35,-0.3509,-0.3497,-0.3467,-0.3472,-0.3457,-0.3457,-0.3474,-0.3476,-0.348,-0.3483,-0.3538,-0.3547,-0.3555,0,0,0,0,0,0,-0.3356,-0.341,-0.3417,-0.345,-0.3484,-0.3514,-0.3521,-0.3525,-0.3526,-0.3513,-0.3491,-0.3486,-0.35,-0.3485,-0.3469,-0.35,-0.3468,-0.3471,-0.351,-0.3519,-0.3526,-0.352,-0.3425,0,0,0,0,0,-0.3359,-0.3387,-0.3437,-0.3461,-0.3479,-0.3502,-0.3516,-0.3522,-0.3533,-0.3531,-0.3521,-0.3512,-0.352,-0.3515,-0.3518,-0.3539,-0.3506,-0.3549,-0.3556,-0.3563,-0.3559,-0.3545,-0.3551,-0.3496,-0.3496,-0.3495,0,0,-0.3349,-0.3384,-0.3397,-0.3455,-0.3476,-0.3516,-0.3504,-0.3533,-0.356,-0.3527,-0.3545,-0.354,-0.3533,-0.3554,-0.3559,-0.3539,-0.356,-0.3567,-0.3572,-0.3565,-0.3549,-0.3554,-0.3559,-0.3498,-0.3497,-0.3497,0,0,-0.335,-0.338,-0.3405,-0.3444,-0.3492,-0.3519,-0.353,-0.3568,-0.3573,-0.3606,-0.3588,-0.3594,-0.3603,-0.3603,-0.3604,-0.3656,-0.3603,-0.3656,-0.3684,-0.3671,-0.3675,-0.3678,-0.3633,-0.3631,-0.3655,-0.3655,-0.3656,0,-0.3333,-0.3379,-0.3417,-0.3459,-0.3488,-0.3522,-0.3558,-0.3587,-0.3621,-0.3629,-0.3613,-0.3635,-0.3627,-0.3654,-0.3671,-0.3671,-0.3642,-0.3649,-0.3679,-0.3682,-0.3684,-0.3636,-0.3634,-0.3659,-0.3658,-0.3658,-0.3658,0,-0.3362,-0.3398,-0.3418,-0.3484,-0.3524,-0.356,-0.3617,-0.3647,-0.3658,-0.3679,-0.3704,-0.3703,-0.3705,-0.3716,-0.3709,-0.3729,-0.3696,-0.3693,-0.3653,-0.3693,-0.364,-0.3636,-0.3664,-0.3662,-0.3661,-0.3661,0,0,-0.331,-0.3417,-0.3418,-0.3451,-0.3539,-0.357,-0.3634,-0.369,-0.3714,-0.3743,-0.376,-0.3787,-0.3774,-0.3775,-0.3769,-0.3764,-0.3755,-0.3736,-0.3734,-0.3683,-0.37,-0.3602,-0.3588,-0.3756,-0.3756,-0.3756,-0.3653,0,-0.3311,-0.3382,-0.3442,-0.3502,-0.3541,-0.3607,-0.3659,-0.3715,-0.3751,-0.378,-0.3792,-0.3804,-0.3802,-0.3795,-0.3798,-0.377,-0.375,-0.3781,-0.3676,-0.3672,-0.3574,-0.3583,-0.3448,-0.3339,-0.3649,-0.3648,-0.3648,0,-0.3302,-0.3358,-0.3415,-0.3508,-0.3529,-0.3571,-0.3647,-0.3702,-0.3769,-0.3789,-0.3815,-0.3824,-0.3833,-0.3819,-0.3783,-0.3801,-0.3753,-0.3725,-0.3721,-0.3603,-0.3567,-0.3353,-0.332,-0.3293,-0.3641,-0.3642,-0.3642,0,-0.3222,-0.3327,-0.3366,-0.3401,-0.3519,-0.3546,-0.3604,-0.3686,-0.3728,-0.3784,-0.3802,-0.3824,-0.3813,-0.3788,-0.3745,-0.3758,-0.3686,-0.3691,-0.3553,-0.3544,-0.3394,-0.3372,-0.3313,-0.365,-0.365,-0.3651,-0.3651,0,-0.3188,-0.3215,-0.3328,-0.3349,-0.339,-0.349,-0.3536,-0.3597,-0.3681,-0.3703,-0.3784,-0.3793,-0.3806,-0.378,-0.3739,-0.3624,-0.3673,-0.3545,-0.3513,-0.341,-0.3392,-0.3332,-0.3365,-0.3647,-0.3648,-0.3648,-0.3649,0,-0.3079,-0.3161,-0.3208,-0.3321,-0.3349,-0.3371,-0.3488,-0.351,-0.3616,-0.3646,-0.3659,-0.3751,-0.371,-0.3705,-0.3644,-0.3587,-0.3437,-0.345,-0.3313,-0.3267,-0.3103,-0.3145,-0.3038,-0.2949,-0.3269,-0.3266,-0.3263,0,-0.3028,-0.304,-0.3147,-0.3155,-0.3197,-0.326,-0.3284,-0.3432,-0.3461,-0.3601,-0.3582,-0.3615,-0.3587,-0.3491,-0.34,-0.3285,-0.33,-0.3097,-0.3102,-0.3062,-0.3086,-0.312,-0.3056,-0.2921,-0.2916,-0.2912,-0.2908,0,-0.2905,-0.2939,-0.2964,-0.3006,-0.3029,-0.3084,-0.314,-0.3178,-0.3325,-0.3373,-0.3419,-0.3431,-0.3366,-0.3219,-0.3102,-0.3021,-0.302,-0.3004,-0.3004,-0.2836,-0.2828,-0.2737,-0.3016,-0.2871,-0.2874,-0.2877,-0.2879,-0.2881,-0.277,-0.2762,-0.2796,-0.2813,-0.2846,-0.2876,-0.2859,-0.2943,-0.2997,-0.3032,-0.3163,-0.3138,-0.3076,-0.2902,-0.2818,-0.2642,-0.2727,-0.2565,-0.2623,-0.2664,-0.2569,-0.275,-0.2554,-0.2556,-0.2557,-0.2559,-0.256,0,-0.2595,-0.2599,-0.2602,-0.2625,-0.2587,-0.2678,-0.2712,-0.2669,-0.2655,-0.2757,-0.2769,-0.2792,-0.263,-0.2596,-0.2442,-0.2316,-0.2263,-0.226,-0.2291,-0.2246,-0.2417,-0.2391,-0.2101,-0.2101,-0.2101,-0.2101,-0.2101,-0.2101,-0.2497,-0.2435,-0.2452,-0.2347,-0.2352,-0.2254,-0.2233,-0.2202,-0.2238,-0.2254,-0.2324,-0.2437,-0.2449,-0.2531,-0.2331,-0.2193,-0.2147,-0.206,-0.2102,-0.2259,-0.2293,-0.2326,-0.2308,-0.2005,-0.2005,-0.1836,-0.1835,-0.1834]},{"header":{"parameterUnit":"m.s-1","parameterCategory":2,"la1":30.2991,"la2":30.254,"lo1":-89.0895,"lo2":-89.0444,"dy":0.0017,"dx":0.0017,"nx":28,"ny":28,"refTime":"2024-05-10T09:00:00:Z","depth":"0","parameterNumber":3,"parameterNumberName":"V-component_of_CURRENTS"},"data":[0,0,0,0,0,0,0,0,0,0,0,0,0,0,0,0,0,0,0,0,0,0,0,0,0,0,0,0,0,0,0,0,0,0,0,0,0,0,0,0,0,0,0,0,0,0,0,0,0,0,0,0,0,0,0,0,0,0,-0.0475,-0.0474,0,-0.0364,-0.0363,-0.0361,-0.028,-0.028,-0.0279,-0.0279,-0.0127,-0.0124,-0.012,0,0,0,0,0,0,0,0,0,0,0,0,0,-0.0548,-0.0547,-0.0475,-0.0474,-0.0472,-0.0364,-0.0363,-0.0361,-0.028,-0.028,-0.0279,-0.0279,-0.0128,-0.0124,-0.012,0,0,0,0,0,0,0,0,0,0,0,0,0,-0.0483,-0.0547,-0.0475,-0.042,-0.0415,-0.0365,-0.0363,-0.0361,-0.0281,-0.028,-0.0279,-0.0278,-0.013,-0.0124,-0.0119,-0.0102,0,0,-0.0103,-0.0101,0,0,0,0,0,0,0,0,-0.0487,-0.048,-0.043,-0.0424,-0.0418,-0.0337,-0.0333,-0.0273,-0.0281,-0.0329,-0.0279,-0.0278,-0.0195,-0.0184,-0.0163,-0.0095,-0.0088,-0.0102,-0.0099,-0.0097,-0.0095,0,0,0,0,0,0,0,-0.0492,-0.0484,-0.0429,-0.0429,-0.0421,-0.0378,-0.0369,-0.0321,-0.0266,-0.0325,-0.0319,-0.031,-0.0191,-0.0169,-0.0159,-0.0086,-0.0103,-0.0098,-0.0095,-0.0092,0.0028,0.0028,0,0,0,0,0,0,-0.0514,-0.0489,-0.0433,-0.0426,-0.0453,-0.0378,-0.0367,-0.0362,-0.0267,-0.0253,-0.0311,-0.0307,-0.0178,-0.0165,-0.0153,-0.0123,-0.0097,-0.0092,-0.0089,0.0028,0.0028,0.0028,0,0,0,0,0,0,-0.0516,-0.051,-0.0437,-0.0456,-0.0444,-0.0378,-0.0373,-0.036,-0.0338,-0.0257,-0.0242,-0.0302,-0.0177,-0.0161,-0.0112,-0.0116,-0.009,-0.0085,0.0028,0.0028,0.0028,-0.0064,0,0,0,0,0,0,-0.0518,-0.0511,-0.0518,-0.0458,-0.0444,-0.0419,-0.0373,-0.0359,-0.0334,-0.0328,-0.0244,-0.0229,-0.0175,-0.012,-0.0107,-0.0109,-0.0081,0.0028,0.0028,0.0028,-0.0061,-0.0067,-0.0073,0,0,0,0,0,-0.0521,-0.0539,-0.0519,-0.0512,-0.0455,-0.042,-0.0409,-0.0357,-0.0335,-0.0333,-0.0272,-0.0232,-0.011,-0.0116,-0.01,-0.0101,0.0028,0.0028,0.0028,-0.0059,-0.0066,-0.0073,0,0,0,0,0,0,-0.0575,-0.0531,-0.0508,-0.0511,-0.0473,-0.0407,-0.0403,-0.0367,-0.0317,-0.031,-0.0232,-0.0213,-0.0173,-0.0124,-0.0132,-0.0065,-0.0034,-0.0031,-0.0106,-0.0112,-0.0118,-0.0131,-0.0076,0,0,0,0,0,-0.0591,-0.0593,-0.0539,-0.0543,-0.0529,-0.0467,-0.0448,-0.0413,-0.0361,-0.0338,-0.0279,-0.0215,-0.016,-0.0128,-0.0076,-0.004,0.002,-0.0028,-0.0034,-0.0039,-0.0039,0.0045,0.0046,0.0028,0.0028,0.0028,0,0,-0.0612,-0.059,-0.0589,-0.0554,-0.052,-0.051,-0.0454,-0.0433,-0.0418,-0.033,-0.0296,-0.0237,-0.0156,-0.0116,-0.0093,-0.0075,-0.0003,-0.0039,-0.0045,-0.0041,0.0045,0.0047,0.0048,0.0028,0.0028,0.0028,0,0,-0.0661,-0.0636,-0.0654,-0.0632,-0.0593,-0.055,-0.0549,-0.0489,-0.0455,-0.0416,-0.0348,-0.0291,-0.0214,-0.0151,-0.011,-0.0116,-0.0041,-0.0102,-0.0136,-0.0056,-0.0054,-0.0051,0.0021,0.0031,-0.01,-0.01,-0.01,0,-0.069,-0.0702,-0.0654,-0.0666,-0.0656,-0.0575,-0.0589,-0.0542,-0.0471,-0.0442,-0.042,-0.0289,-0.0228,-0.0158,-0.016,-0.0129,-0.0074,-0.012,-0.0064,-0.006,-0.0056,0.0018,0.003,-0.0104,-0.0104,-0.0104,-0.0103,0,-0.075,-0.0758,-0.0768,-0.0753,-0.0735,-0.0734,-0.0668,-0.0634,-0.0583,-0.0526,-0.0454,-0.0362,-0.028,-0.0254,-0.0208,-0.0146,-0.0115,-0.0088,-0.0052,-0.006,0.0018,0.0032,-0.0111,-0.0109,-0.0108,-0.0107,0,0,-0.0816,-0.0813,-0.0815,-0.0827,-0.0783,-0.0775,-0.0745,-0.0689,-0.0661,-0.0579,-0.0532,-0.0434,-0.0371,-0.0321,-0.0247,-0.0176,-0.0103,-0.0127,-0.0121,-0.0065,0.0072,0.0132,0.0154,-0.0067,-0.0065,-0.0063,0.0112,0,-0.0876,-0.0927,-0.0899,-0.0931,-0.0949,-0.0875,-0.0859,-0.0795,-0.0716,-0.0646,-0.0527,-0.0458,-0.0398,-0.0358,-0.0277,-0.0143,-0.0069,-0.0153,0.0081,0.0087,0.0135,0.0172,0.0217,0.038,0.0126,0.0128,0.013,0,-0.0941,-0.0967,-0.1021,-0.1025,-0.1026,-0.1025,-0.0971,-0.0939,-0.0813,-0.0755,-0.0647,-0.0545,-0.0417,-0.0373,-0.0145,-0.0202,-0.0078,0.0026,0.0035,0.0136,0.0175,0.0351,0.0416,0.0627,0.0153,0.0151,0.0149,0,-0.1017,-0.1046,-0.1094,-0.1099,-0.1089,-0.1089,-0.1064,-0.0972,-0.0942,-0.0805,-0.0759,-0.0593,-0.0497,-0.0325,-0.0106,-0.0123,0.0149,0.0156,0.0329,0.0334,0.0442,0.0454,0.0734,0.0311,0.0311,0.031,0.031,0,-0.1093,-0.1128,-0.1134,-0.1165,-0.1215,-0.1169,-0.1176,-0.1121,-0.1028,-0.0989,-0.0819,-0.0739,-0.0481,-0.029,-0.011,0.0166,0.0154,0.0339,0.0392,0.0411,0.0417,0.0661,0.0728,0.0317,0.0315,0.0314,0.0313,0,-0.1169,-0.1172,-0.1232,-0.1248,-0.1258,-0.1287,-0.127,-0.1258,-0.1159,-0.1093,-0.1055,-0.0827,-0.0567,-0.0299,0.0009,0.0171,0.0557,0.051,0.0512,0.0563,0.0902,0.096,0.1279,0.1414,0.0729,0.0732,0.0734,0,-0.1211,-0.1252,-0.131,-0.135,-0.136,-0.1388,-0.1408,-0.1338,-0.1311,-0.1147,-0.1117,-0.0849,-0.0644,-0.0154,0.0195,0.0554,0.0699,0.0785,0.0763,0.0952,0.1056,0.1092,0.1184,0.0871,0.0874,0.0877,0.0879,0,-0.1289,-0.1306,-0.1354,-0.1452,-0.1493,-0.1538,-0.1543,-0.1546,-0.1443,-0.1357,-0.1186,-0.1004,-0.0503,-0.0041,0.0438,0.064,0.0949,0.0849,0.1063,0.1212,0.1256,0.1399,0.0714,0.0902,0.09,0.0898,0.0897,0.0896,-0.1329,-0.1389,-0.1455,-0.1541,-0.1602,-0.1659,-0.1681,-0.1651,-0.1605,-0.1443,-0.1249,-0.0928,-0.0254,0.045,0.0705,0.1242,0.1175,0.138,0.1441,0.1465,0.1587,0.0945,0.1176,0.1176,0.1175,0.1174,0.1174,0,-0.1379,-0.1445,-0.1538,-0.1638,-0.1719,-0.1726,-0.1752,-0.1727,-0.1665,-0.1463,-0.1243,-0.0505,0.0157,0.0765,0.1531,0.1819,0.188,0.1945,0.202,0.2091,0.1558,0.1555,0.1859,0.1858,0.1858,0.1858,0.1858,0.1858,-0.1404,-0.1504,-0.1561,-0.1709,-0.1776,-0.1838,-0.1844,-0.1782,-0.1636,-0.1271,-0.087,-0.0535,0.0372,0.1609,0.2307,0.2359,0.2608,0.2571,0.2713,0.2343,0.2295,0.2248,0.2267,0.2715,0.2716,0.3239,0.3244,0.3248]}],[{"header":{"parameterUnit":"m.s-1","parameterCategory":2,"la1":30.2991,"la2":30.254,"lo1":-89.0895,"lo2":-89.0444,"dy":0.0017,"dx":0.0017,"nx":28,"ny":28,"refTime":"2024-05-10T09:00:00:Z","depth":"2","parameterNumber":2,"parameterNumberName":"U-component_of_CURRENTS"},"data":[0,0,0,0,0,0,0,0,0,0,0,0,0,0,0,0,0,0,0,0,0,0,0,0,0,0,0,0,0,0,0,0,0,0,0,0,0,0,0,0,0,0,0,0,0,0,0,0,0,0,0,0,0,0,0,0,0,0,-0.3086,-0.3087,0,-0.3138,-0.3138,-0.3138,-0.3115,-0.3114,-0.3113,-0.3112,-0.3092,-0.3093,-0.3093,0,0,0,0,0,0,0,0,0,0,0,0,0,-0.2972,-0.2974,-0.3086,-0.3087,-0.3088,-0.3138,-0.3138,-0.3138,-0.3115,-0.3114,-0.3113,-0.3112,-0.3092,-0.3093,-0.3093,0,0,0,0,0,0,0,0,0,0,0,0,0,-0.302,-0.2975,-0.3086,-0.3085,-0.3086,-0.3138,-0.3138,-0.3139,-0.3116,-0.3114,-0.3113,-0.3111,-0.3092,-0.3093,-0.3093,-0.3126,0,0,-0.3095,-0.3095,0,0,0,0,0,0,0,0,-0.3017,-0.3023,-0.3084,-0.3085,-0.3086,-0.3121,-0.3091,-0.3132,-0.3116,-0.3101,-0.3112,-0.311,-0.3099,-0.3099,-0.3108,-0.3125,-0.3125,-0.3095,-0.3095,-0.3096,-0.3096,0,0,0,0,0,0,0,-0.3014,-0.3021,-0.3103,-0.3085,-0.3087,-0.3084,-0.3088,-0.3099,-0.3103,-0.3102,-0.3101,-0.3113,-0.3098,-0.3108,-0.3107,-0.3124,-0.3095,-0.3096,-0.3096,-0.3096,-0.3161,-0.3162,0,0,0,0,0,0,-0.3016,-0.3018,-0.3102,-0.3105,-0.3051,-0.3087,-0.3092,-0.3109,-0.3105,-0.3104,-0.3114,-0.3111,-0.3107,-0.3107,-0.3106,-0.3146,-0.3096,-0.3096,-0.3097,-0.3159,-0.3161,-0.3163,0,0,0,0,0,0,-0.3013,-0.3023,-0.31,-0.3065,-0.3075,-0.3091,-0.311,-0.3111,-0.312,-0.3115,-0.3112,-0.3123,-0.3106,-0.3106,-0.3123,-0.3145,-0.3097,-0.3097,-0.3158,-0.316,-0.3162,-0.3225,0,0,0,0,0,0,-0.301,-0.3022,-0.3032,-0.3065,-0.3077,-0.3134,-0.3111,-0.3113,-0.3131,-0.3128,-0.3122,-0.3119,-0.3105,-0.3122,-0.3124,-0.3145,-0.3098,-0.3156,-0.3159,-0.3161,-0.3221,-0.3229,-0.3235,0,0,0,0,0,-0.3006,-0.3024,-0.3032,-0.3042,-0.3092,-0.3135,-0.3141,-0.3144,-0.3133,-0.3145,-0.3143,-0.3119,-0.3139,-0.3125,-0.3126,-0.3147,-0.3155,-0.3158,-0.3161,-0.3218,-0.3227,-0.3235,0,0,0,0,0,0,-0.2975,-0.3026,-0.3034,-0.3066,-0.3101,-0.3132,-0.3144,-0.3153,-0.3163,-0.3157,-0.3142,-0.314,-0.3163,-0.3151,-0.3135,-0.3173,-0.3141,-0.3145,-0.3184,-0.3193,-0.32,-0.3196,-0.3098,0,0,0,0,0,-0.2977,-0.3005,-0.3052,-0.3076,-0.3096,-0.3123,-0.314,-0.3151,-0.3168,-0.3171,-0.317,-0.3169,-0.318,-0.3181,-0.3187,-0.3213,-0.3184,-0.3226,-0.3233,-0.3239,-0.3237,-0.3228,-0.3233,-0.3173,-0.3173,-0.3173,0,0,-0.2971,-0.3003,-0.3017,-0.3072,-0.3096,-0.3136,-0.3128,-0.3163,-0.3193,-0.3168,-0.3197,-0.3197,-0.3193,-0.322,-0.3228,-0.321,-0.324,-0.3243,-0.3248,-0.3243,-0.3231,-0.3237,-0.3242,-0.3175,-0.3174,-0.3174,0,0,-0.2976,-0.3003,-0.3031,-0.3068,-0.3118,-0.3145,-0.3158,-0.3201,-0.3212,-0.3252,-0.3239,-0.3252,-0.3269,-0.3271,-0.3273,-0.3326,-0.3281,-0.3328,-0.3359,-0.3351,-0.3355,-0.3359,-0.3321,-0.332,-0.3329,-0.3329,-0.3329,0,-0.2964,-0.3008,-0.3044,-0.3085,-0.3114,-0.3151,-0.3188,-0.322,-0.3261,-0.3274,-0.3265,-0.3296,-0.3293,-0.3323,-0.3341,-0.3341,-0.3318,-0.3326,-0.3359,-0.3362,-0.3365,-0.3325,-0.3323,-0.3332,-0.3332,-0.3332,-0.3331,0,-0.2994,-0.3032,-0.3052,-0.3117,-0.3156,-0.3194,-0.325,-0.3285,-0.3304,-0.3328,-0.3362,-0.3365,-0.3375,-0.3386,-0.3381,-0.3406,-0.3377,-0.3371,-0.3334,-0.3374,-0.333,-0.3327,-0.3337,-0.3336,-0.3335,-0.3334,0,0,-0.295,-0.3053,-0.3056,-0.3089,-0.3174,-0.3206,-0.3272,-0.333,-0.3359,-0.3396,-0.3422,-0.3453,-0.3445,-0.3448,-0.3444,-0.3444,-0.3444,-0.342,-0.3418,-0.3376,-0.3403,-0.3305,-0.3292,-0.3445,-0.3446,-0.3446,-0.3361,0,-0.2955,-0.3027,-0.3082,-0.3145,-0.3184,-0.3248,-0.3302,-0.3361,-0.3402,-0.3439,-0.3454,-0.3475,-0.3473,-0.3474,-0.348,-0.3457,-0.3443,-0.3466,-0.3375,-0.3372,-0.3275,-0.3288,-0.3061,-0.2959,-0.3358,-0.3357,-0.3357,0,-0.2952,-0.3005,-0.3066,-0.3156,-0.3178,-0.3223,-0.3303,-0.3359,-0.3431,-0.3456,-0.3489,-0.3502,-0.3518,-0.3504,-0.3479,-0.3494,-0.3452,-0.3428,-0.3424,-0.3307,-0.3269,-0.2986,-0.294,-0.3353,-0.3353,-0.3353,-0.3354,0,-0.2881,-0.2983,-0.3026,-0.3059,-0.3174,-0.3207,-0.3264,-0.3351,-0.3394,-0.3459,-0.3482,-0.3511,-0.3509,-0.3489,-0.3453,-0.3464,-0.3406,-0.3408,-0.3276,-0.3267,-0.304,-0.3012,-0.3376,-0.3376,-0.3376,-0.3376,-0.3377,0,-0.2852,-0.2882,-0.2994,-0.3017,-0.3064,-0.3161,-0.3214,-0.3277,-0.3363,-0.3389,-0.3472,-0.3485,-0.3507,-0.3488,-0.3451,-0.3346,-0.3397,-0.3271,-0.3241,-0.3055,-0.303,-0.335,-0.3348,-0.3373,-0.3374,-0.3374,-0.3375,0,-0.2757,-0.2837,-0.2887,-0.2999,-0.3029,-0.3057,-0.3173,-0.3199,-0.3307,-0.3343,-0.336,-0.3452,-0.3422,-0.3423,-0.3374,-0.3317,-0.3245,-0.3191,-0.2961,-0.2905,-0.3109,-0.3111,-0.3029,-0.3025,-0.3022,-0.3019,-0.3016,0,-0.2713,-0.2729,-0.2836,-0.2847,-0.2892,-0.296,-0.2987,-0.3131,-0.316,-0.3301,-0.3285,-0.3328,-0.3299,-0.3218,-0.3128,-0.3023,-0.3131,-0.2755,-0.274,-0.3095,-0.3075,-0.3083,-0.309,-0.2456,-0.245,-0.2444,-0.244,0,-0.2604,-0.2641,-0.267,-0.2715,-0.2743,-0.2794,-0.2852,-0.2888,-0.3031,-0.3077,-0.3121,-0.313,-0.3075,-0.2883,-0.2777,-0.2691,-0.2761,-0.2637,-0.3051,-0.2594,-0.2552,-0.2534,-0.256,-0.239,-0.2395,-0.2398,-0.2401,-0.2403,-0.2485,-0.2482,-0.2519,-0.2541,-0.2576,-0.26,-0.2582,-0.2659,-0.2704,-0.273,-0.2858,-0.2787,-0.2763,-0.2494,-0.2355,-0.2252,-0.2443,-0.2332,-0.235,-0.2374,-0.2338,-0.2294,-0.2073,-0.2076,-0.2079,-0.2081,-0.2083,0,-0.2327,-0.2334,-0.2341,-0.2367,-0.2331,-0.242,-0.2446,-0.2396,-0.2371,-0.2437,-0.2438,-0.2206,-0.2087,-0.2074,-0.1841,-0.1787,-0.1775,-0.1707,-0.17,-0.175,-0.1795,-0.1731,-0.1304,-0.1302,-0.13,-0.1297,0,0,-0.2238,-0.2184,-0.2199,-0.2103,-0.2112,-0.2017,-0.1993,-0.1943,-0.1948,-0.1881,-0.1846,-0.1998,-0.2038,-0.1688,-0.1589,-0.1415,-0.157,-0.134,-0.1967,-0.201,-0.2052,-0.2155,-0.2113,0,0,0,0,0]},{"header":{"parameterUnit":"m.s-1","parameterCategory":2,"la1":30.2991,"la2":30.254,"lo1":-89.0895,"lo2":-89.0444,"dy":0.0017,"dx":0.0017,"nx":28,"ny":28,"refTime":"2024-05-10T09:00:00:Z","depth":"2","parameterNumber":3,"parameterNumberName":"V-component_of_CURRENTS"},"data":[0,0,0,0,0,0,0,0,0,0,0,0,0,0,0,0,0,0,0,0,0,0,0,0,0,0,0,0,0,0,0,0,0,0,0,0,0,0,0,0,0,0,0,0,0,0,0,0,0,0,0,0,0,0,0,0,0,0,-0.0338,-0.0337,0,-0.0239,-0.0237,-0.0236,-0.0164,-0.0164,-0.0163,-0.0163,-0.0025,-0.0022,-0.0018,0,0,0,0,0,0,0,0,0,0,0,0,0,-0.04,-0.0399,-0.0338,-0.0337,-0.0336,-0.0239,-0.0237,-0.0236,-0.0164,-0.0164,-0.0163,-0.0163,-0.0026,-0.0022,-0.0018,0,0,0,0,0,0,0,0,0,0,0,0,0,-0.0342,-0.0399,-0.0338,-0.029,-0.0285,-0.0239,-0.0237,-0.0235,-0.0164,-0.0164,-0.0163,-0.0162,-0.0027,-0.0022,-0.0018,0.0,0,0,-0.0003,-0.0,0,0,0,0,0,0,0,0,-0.0346,-0.034,-0.0298,-0.0293,-0.0287,-0.0215,-0.0208,-0.0155,-0.0164,-0.0208,-0.0163,-0.0162,-0.0087,-0.0077,-0.0057,0.0007,0.0013,-0.0002,0.0001,0.0003,0.0004,0,0,0,0,0,0,0,-0.035,-0.0343,-0.0297,-0.0297,-0.0291,-0.0251,-0.0242,-0.0198,-0.015,-0.0204,-0.0199,-0.0191,-0.0083,-0.0062,-0.0053,0.0015,-0.0002,0.0002,0.0005,0.0007,0.0123,0.0123,0,0,0,0,0,0,-0.037,-0.0348,-0.03,-0.0294,-0.0318,-0.0251,-0.0241,-0.0237,-0.0151,-0.0138,-0.0192,-0.0188,-0.0071,-0.0059,-0.0048,-0.0018,0.0003,0.0008,0.001,0.0123,0.0123,0.0123,0,0,0,0,0,0,-0.0372,-0.0367,-0.0304,-0.032,-0.0309,-0.0251,-0.0247,-0.0236,-0.0216,-0.0143,-0.0128,-0.0184,-0.007,-0.0055,-0.0009,-0.0012,0.001,0.0014,0.0122,0.0123,0.0123,0.0039,0,0,0,0,0,0,-0.0374,-0.0368,-0.0376,-0.0321,-0.0309,-0.0288,-0.0247,-0.0234,-0.0213,-0.0207,-0.0131,-0.0118,-0.0068,-0.0017,-0.0005,-0.0005,0.0018,0.0122,0.0122,0.0123,0.0042,0.0037,0.0032,0,0,0,0,0,-0.0377,-0.0395,-0.0377,-0.0372,-0.0321,-0.0289,-0.0279,-0.0233,-0.0214,-0.0212,-0.0156,-0.012,-0.0006,-0.0013,0.0002,0.0002,0.0122,0.0122,0.0123,0.0044,0.0038,0.0032,0,0,0,0,0,0,-0.0426,-0.0388,-0.0367,-0.0373,-0.0337,-0.0277,-0.0275,-0.0242,-0.0196,-0.0191,-0.0119,-0.0102,-0.0064,-0.0019,-0.0028,0.0038,0.0064,0.0067,-0.0001,-0.0006,-0.0011,-0.0026,0.0022,0,0,0,0,0,-0.0442,-0.0445,-0.0396,-0.0401,-0.0389,-0.0333,-0.0316,-0.0285,-0.0237,-0.0216,-0.0162,-0.0102,-0.0051,-0.0021,0.0028,0.0062,0.0116,0.0074,0.0069,0.0064,0.0063,0.0141,0.0143,0.0124,0.0124,0.0124,0,0,-0.0462,-0.0442,-0.0443,-0.0412,-0.0381,-0.0372,-0.0321,-0.0303,-0.0289,-0.0209,-0.0178,-0.0122,-0.0047,-0.0007,0.0015,0.003,0.0098,0.0065,0.006,0.0062,0.0142,0.0144,0.0146,0.0124,0.0124,0.0124,0,0,-0.0508,-0.0487,-0.0505,-0.0484,-0.045,-0.041,-0.041,-0.0354,-0.0324,-0.0287,-0.0224,-0.0169,-0.0098,-0.0038,0.0001,-0.0001,0.0065,0.0012,-0.002,0.0055,0.0058,0.006,0.0124,0.0133,0.0014,0.0014,0.0014,0,-0.0535,-0.0547,-0.0504,-0.0516,-0.0508,-0.0433,-0.0447,-0.0403,-0.0338,-0.0311,-0.0291,-0.0167,-0.0109,-0.0042,-0.0042,-0.0012,0.0037,-0.0007,0.0048,0.0052,0.0056,0.0121,0.0132,0.001,0.001,0.0011,0.0011,0,-0.0592,-0.06,-0.061,-0.0597,-0.0581,-0.0581,-0.052,-0.0489,-0.0442,-0.0389,-0.0321,-0.0232,-0.0156,-0.0129,-0.0086,-0.0027,-0.0,0.0027,0.0058,0.0053,0.0122,0.0135,0.0004,0.0006,0.0007,0.0008,0,0,-0.0655,-0.0653,-0.0655,-0.0667,-0.0627,-0.062,-0.0592,-0.054,-0.0516,-0.0437,-0.0396,-0.0298,-0.0241,-0.0193,-0.0122,-0.0054,0.0014,-0.001,-0.0004,0.0043,0.0174,0.0219,0.0238,0.0049,0.0051,0.0052,0.0208,0,-0.0711,-0.0759,-0.0734,-0.0764,-0.0782,-0.0714,-0.07,-0.0641,-0.0568,-0.0505,-0.039,-0.0327,-0.0266,-0.023,-0.0151,-0.0025,0.0045,-0.0031,0.0181,0.0187,0.022,0.0254,0.0213,0.035,0.0221,0.0223,0.0225,0,-0.0773,-0.0798,-0.085,-0.0855,-0.0856,-0.0856,-0.081,-0.0781,-0.0665,-0.0611,-0.051,-0.0415,-0.0293,-0.0248,-0.0032,-0.0084,0.0032,0.013,0.0139,0.022,0.0257,0.0339,0.038,0.0247,0.0245,0.0244,0.0242,0,-0.0846,-0.0874,-0.0921,-0.0926,-0.0917,-0.092,-0.0898,-0.0814,-0.0788,-0.0664,-0.0624,-0.0465,-0.0378,-0.0212,-0.0005,-0.0017,0.0234,0.0246,0.0398,0.0403,0.0431,0.0435,0.0392,0.0392,0.0392,0.0391,0.0391,0,-0.0919,-0.0952,-0.096,-0.099,-0.1041,-0.0998,-0.101,-0.096,-0.0876,-0.0842,-0.0683,-0.0611,-0.0365,-0.0188,-0.0013,0.0242,0.0235,0.0405,0.0454,0.04,0.0399,0.0358,0.0352,0.0397,0.0396,0.0395,0.0394,0,-0.0991,-0.0995,-0.1053,-0.107,-0.1082,-0.1113,-0.1101,-0.1094,-0.1004,-0.0947,-0.0913,-0.0703,-0.0463,-0.0209,0.0081,0.0235,0.0466,0.0552,0.0469,0.0506,0.0582,0.057,0.0739,0.0742,0.0745,0.0747,0.0749,0,-0.1031,-0.107,-0.1129,-0.1169,-0.1181,-0.1213,-0.1235,-0.1172,-0.115,-0.1001,-0.0976,-0.0734,-0.0547,-0.0093,0.0226,0.0561,0.0549,0.0701,0.0676,0.0592,0.0622,0.0605,0.059,0.0678,0.068,0.068,0.0681,0,-0.1104,-0.1124,-0.117,-0.1268,-0.1312,-0.1356,-0.1367,-0.1371,-0.1277,-0.1203,-0.105,-0.0886,-0.0435,-0.0049,0.0389,0.0566,0.0645,0.0731,0.0691,0.0591,0.0546,0.0571,0.0557,0.0689,0.0688,0.0688,0.0687,0.0687,-0.1144,-0.1201,-0.1267,-0.1352,-0.1415,-0.1471,-0.1494,-0.1469,-0.1431,-0.1284,-0.1114,-0.0827,-0.0444,0.0191,0.0498,0.0775,0.0767,0.0827,0.082,0.0812,0.0771,0.0734,0.0904,0.0904,0.0904,0.0905,0.0905,0,-0.1192,-0.1255,-0.1345,-0.1443,-0.1524,-0.1536,-0.1562,-0.1536,-0.1483,-0.1305,-0.111,-0.0672,-0.022,0.0168,0.063,0.09,0.0859,0.0921,0.0822,0.0813,0.0806,0.076,0.0892,0.0892,0.0893,0.0894,0,0,-0.1215,-0.1311,-0.1364,-0.1508,-0.1576,-0.1639,-0.1647,-0.1581,-0.1449,-0.1261,-0.1037,-0.0698,-0.0212,0.0115,0.046,0.0694,0.0669,0.0697,0.068,0.0513,0.0502,0.0727,0.0644,0,0,0,0,0]}],[{"header":{"parameterUnit":"m.s-1","parameterCategory":2,"la1":30.2991,"la2":30.254,"lo1":-89.0895,"lo2":-89.0444,"dy":0.0017,"dx":0.0017,"nx":28,"ny":28,"refTime":"2024-05-10T09:00:00:Z","depth":"4","parameterNumber":2,"parameterNumberName":"U-component_of_CURRENTS"},"data":[0,0,0,0,0,0,0,0,0,0,0,0,0,0,0,0,0,0,0,0,0,0,0,0,0,0,0,0,0,0,0,0,0,0,0,0,0,0,0,0,0,0,0,0,0,0,0,0,0,0,0,0,0,0,0,0,0,0,-0.2066,-0.2067,0,-0.2168,-0.2169,-0.217,-0.2226,-0.2227,-0.2227,-0.2227,-0.2317,-0.2319,-0.232,0,0,0,0,0,0,0,0,0,0,0,0,0,-0.1929,-0.1931,-0.2066,-0.2067,-0.2069,-0.2168,-0.2169,-0.217,-0.2226,-0.2227,-0.2227,-0.2228,-0.2316,-0.2318,-0.2321,0,0,0,0,0,0,0,0,0,0,0,0,0,-0.2003,-0.1932,-0.2066,-0.2111,-0.2116,-0.2167,-0.2169,-0.217,-0.2226,-0.2227,-0.2227,-0.2228,-0.2315,-0.2318,-0.2321,-0.2328,0,0,-0.233,-0.2332,0,0,0,0,0,0,0,0,-0.1999,-0.2008,-0.2103,-0.2108,-0.2114,-0.2187,-0.2153,-0.2223,-0.2226,-0.2182,-0.2227,-0.2228,-0.2273,-0.228,-0.2294,-0.2332,-0.2336,-0.2331,-0.2332,-0.2334,-0.2335,0,0,0,0,0,0,0,-0.1994,-0.2004,-0.2104,-0.2104,-0.2111,-0.2129,-0.214,-0.2167,-0.2221,-0.2186,-0.2191,-0.2205,-0.2276,-0.2291,-0.2297,-0.2337,-0.233,-0.2333,-0.2335,-0.2336,-0.2469,-0.247,0,0,0,0,0,0,-0.1985,-0.1999,-0.2101,-0.2107,-0.2059,-0.2131,-0.2143,-0.2161,-0.2221,-0.2232,-0.2205,-0.2208,-0.2286,-0.2293,-0.23,-0.2399,-0.2334,-0.2336,-0.2338,-0.2467,-0.2469,-0.2471,0,0,0,0,0,0,-0.1982,-0.1993,-0.2097,-0.2057,-0.2072,-0.2133,-0.2153,-0.2163,-0.2216,-0.2236,-0.2246,-0.2252,-0.2287,-0.2296,-0.236,-0.24,-0.2338,-0.2341,-0.2465,-0.2468,-0.247,-0.2541,0,0,0,0,0,0,-0.1977,-0.1991,-0.2018,-0.2056,-0.2074,-0.2151,-0.2153,-0.2164,-0.2223,-0.2229,-0.2279,-0.2286,-0.2288,-0.2356,-0.2363,-0.2403,-0.2343,-0.2463,-0.2466,-0.2469,-0.2537,-0.2546,-0.2554,0,0,0,0,0,-0.1972,-0.2,-0.2019,-0.2032,-0.2103,-0.2153,-0.2164,-0.2207,-0.2225,-0.2256,-0.2293,-0.2286,-0.2381,-0.236,-0.2368,-0.2409,-0.2461,-0.2465,-0.2469,-0.2533,-0.2544,-0.2553,0,0,0,0,0,0,-0.1955,-0.201,-0.2031,-0.2075,-0.2123,-0.2164,-0.2202,-0.2229,-0.2284,-0.2301,-0.2314,-0.2324,-0.2392,-0.2392,-0.2369,-0.2456,-0.2418,-0.2424,-0.2463,-0.2474,-0.2482,-0.2475,-0.2345,0,0,0,0,0,-0.1963,-0.2001,-0.2051,-0.2091,-0.2118,-0.2168,-0.2201,-0.2233,-0.2278,-0.2305,-0.2341,-0.2376,-0.2408,-0.2436,-0.2462,-0.2516,-0.2491,-0.2546,-0.2554,-0.2561,-0.2561,-0.2564,-0.2572,-0.2484,-0.2484,-0.2484,0,0,-0.1968,-0.2004,-0.2028,-0.2092,-0.2133,-0.2183,-0.219,-0.2253,-0.2303,-0.2304,-0.2391,-0.2412,-0.2429,-0.2488,-0.2518,-0.2499,-0.2572,-0.2566,-0.2572,-0.2568,-0.2568,-0.2577,-0.2584,-0.2486,-0.2486,-0.2485,0,0,-0.1987,-0.2031,-0.2069,-0.2114,-0.2186,-0.2218,-0.2245,-0.2312,-0.2354,-0.243,-0.244,-0.2487,-0.2548,-0.2563,-0.2576,-0.2648,-0.2617,-0.2664,-0.2706,-0.2709,-0.2716,-0.2721,-0.2692,-0.2694,-0.2669,-0.2669,-0.2669,0,-0.1994,-0.2045,-0.2089,-0.2138,-0.2181,-0.2238,-0.2289,-0.2341,-0.2423,-0.2457,-0.2469,-0.2558,-0.2579,-0.2632,-0.266,-0.2668,-0.2653,-0.2666,-0.2719,-0.2724,-0.2729,-0.2697,-0.2698,-0.2673,-0.2672,-0.2672,-0.2672,0,-0.2032,-0.209,-0.2118,-0.2198,-0.225,-0.2306,-0.2376,-0.2441,-0.2497,-0.2537,-0.2618,-0.2647,-0.2691,-0.2712,-0.2713,-0.2763,-0.2736,-0.2727,-0.2689,-0.2742,-0.2705,-0.2705,-0.2678,-0.2677,-0.2676,-0.2675,0,0,-0.1996,-0.2121,-0.2133,-0.2182,-0.2288,-0.2329,-0.2422,-0.2504,-0.2561,-0.2639,-0.2697,-0.2763,-0.2776,-0.279,-0.28,-0.2812,-0.2835,-0.2794,-0.2792,-0.2757,-0.2823,-0.2639,-0.2621,-0.2841,-0.2842,-0.2843,-0.278,0,-0.2014,-0.2107,-0.2169,-0.2264,-0.2315,-0.24,-0.2474,-0.256,-0.2631,-0.2703,-0.2743,-0.2801,-0.2806,-0.2832,-0.285,-0.2842,-0.2842,-0.2851,-0.2783,-0.278,-0.2605,-0.2618,-0.2845,-0.278,-0.278,-0.278,-0.278,0,-0.2017,-0.2083,-0.2178,-0.2295,-0.2326,-0.2396,-0.2515,-0.259,-0.2697,-0.2747,-0.2812,-0.2845,-0.2891,-0.288,-0.2886,-0.2895,-0.2866,-0.285,-0.2846,-0.2648,-0.2597,-0.2719,-0.278,-0.278,-0.278,-0.278,-0.278,0,-0.1948,-0.2081,-0.2156,-0.22,-0.2344,-0.2407,-0.2486,-0.2605,-0.2665,-0.2775,-0.2816,-0.2877,-0.2903,-0.2899,-0.2878,-0.289,-0.2856,-0.2859,-0.2659,-0.2645,-0.28,-0.2794,-0.2846,-0.2846,-0.2846,-0.2847,-0.2847,0,-0.1916,-0.1979,-0.2138,-0.2177,-0.2263,-0.238,-0.2475,-0.256,-0.2675,-0.2716,-0.2828,-0.2848,-0.2913,-0.2907,-0.2882,-0.2754,-0.2853,-0.2652,-0.2615,-0.283,-0.2829,-0.2799,-0.2794,-0.2844,-0.2845,-0.2845,-0.2846,0,-0.182,-0.1932,-0.2022,-0.2183,-0.2235,-0.2296,-0.2454,-0.25,-0.2635,-0.269,-0.2723,-0.2829,-0.281,-0.2834,-0.2812,-0.2722,-0.2643,-0.2573,-0.2781,-0.2759,-0.243,-0.243,-0.2336,-0.2329,-0.2323,-0.2318,-0.2314,0,-0.1776,-0.1818,-0.1994,-0.2038,-0.2115,-0.2229,-0.2284,-0.245,-0.2486,-0.2641,-0.2625,-0.2688,-0.2724,-0.2537,-0.2595,-0.2506,-0.2482,-0.242,-0.2443,-0.2403,-0.2378,-0.2387,-0.2395,-0.2304,-0.2303,-0.2301,-0.23,0,-0.1673,-0.1755,-0.182,-0.1919,-0.1995,-0.2072,-0.2166,-0.2184,-0.234,-0.248,-0.2454,-0.2447,-0.2419,-0.2398,-0.2341,-0.2289,-0.2453,-0.2358,-0.237,-0.2392,-0.2363,-0.2346,-0.2361,-0.2279,-0.2282,-0.2284,-0.2285,0,-0.1583,-0.1604,-0.17,-0.1764,-0.1853,-0.1879,-0.1966,-0.1996,-0.2065,-0.2233,-0.2211,-0.2285,-0.2381,-0.2282,-0.2234,-0.2162,-0.2135,-0.2064,-0.2091,-0.2115,-0.2073,-0.2007,-0.1764,0,0,0,0,0,-0.1479,-0.1483,-0.1531,-0.1599,-0.1676,-0.1728,-0.1854,-0.1942,-0.2095,-0.2003,-0.2107,-0.207,-0.2023,-0.2072,-0.1948,-0.2133,-0.2145,-0.1981,-0.2079,-0.2164,-0.2188,-0.216,0,0,0,0,0,0,-0.1408,-0.1449,-0.1472,-0.1435,-0.1441,-0.1511,-0.1587,-0.1698,-0.1669,-0.1828,-0.1809,-0.192,-0.1902,-0.2041,-0.1894,-0.1903,-0.1917,-0.2032,-0.2025,-0.215,-0.2172,-0.2191,-0.2171,0,0,0,0,0]},{"header":{"parameterUnit":"m.s-1","parameterCategory":2,"la1":30.2991,"la2":30.254,"lo1":-89.0895,"lo2":-89.0444,"dy":0.0017,"dx":0.0017,"nx":28,"ny":28,"refTime":"2024-05-10T09:00:00:Z","depth":"4","parameterNumber":3,"parameterNumberName":"V-component_of_CURRENTS"},"data":[0,0,0,0,0,0,0,0,0,0,0,0,0,0,0,0,0,0,0,0,0,0,0,0,0,0,0,0,0,0,0,0,0,0,0,0,0,0,0,0,0,0,0,0,0,0,0,0,0,0,0,0,0,0,0,0,0,0,-0.0202,-0.0202,0,-0.0139,-0.0138,-0.0137,-0.0089,-0.0089,-0.0088,-0.0088,0.0015,0.0018,0.002,0,0,0,0,0,0,0,0,0,0,0,0,0,-0.0229,-0.0229,-0.0202,-0.0202,-0.0201,-0.0139,-0.0138,-0.0137,-0.0089,-0.0089,-0.0088,-0.0088,0.0014,0.0017,0.002,0,0,0,0,0,0,0,0,0,0,0,0,0,-0.0195,-0.0229,-0.0202,-0.0171,-0.0168,-0.0139,-0.0138,-0.0137,-0.0089,-0.0088,-0.0088,-0.0088,0.0013,0.0017,0.0021,0.0035,0,0,0.0032,0.0034,0,0,0,0,0,0,0,0,-0.0197,-0.0194,-0.0176,-0.0173,-0.0169,-0.0123,-0.011,-0.0078,-0.0089,-0.0117,-0.0088,-0.0087,-0.0029,-0.0022,-0.0009,0.004,0.0045,0.0032,0.0035,0.0036,0.0037,0,0,0,0,0,0,0,-0.02,-0.0196,-0.0175,-0.0176,-0.0172,-0.0142,-0.0137,-0.0103,-0.0074,-0.0114,-0.0111,-0.0107,-0.0026,-0.0012,-0.0006,0.0046,0.0032,0.0036,0.0038,0.0039,0.0133,0.0134,0,0,0,0,0,0,-0.0215,-0.0199,-0.0177,-0.0174,-0.0185,-0.0142,-0.0137,-0.0137,-0.0075,-0.0066,-0.0108,-0.0105,-0.0019,-0.001,-0.0002,0.0023,0.0036,0.004,0.0042,0.0133,0.0134,0.0134,0,0,0,0,0,0,-0.0216,-0.0214,-0.018,-0.0186,-0.018,-0.0143,-0.0143,-0.0136,-0.0124,-0.0071,-0.006,-0.0104,-0.0018,-0.0007,0.0028,0.0027,0.0041,0.0045,0.0133,0.0133,0.0134,0.007,0,0,0,0,0,0,-0.0217,-0.0214,-0.0223,-0.0187,-0.018,-0.0171,-0.0143,-0.0135,-0.0123,-0.0119,-0.0064,-0.0054,-0.0017,0.0022,0.0032,0.0033,0.0048,0.0133,0.0133,0.0134,0.0072,0.0068,0.0065,0,0,0,0,0,-0.0218,-0.0234,-0.0224,-0.0221,-0.0192,-0.0172,-0.0166,-0.0136,-0.0123,-0.0123,-0.0082,-0.0056,0.0032,0.0025,0.0036,0.0038,0.0132,0.0133,0.0133,0.0073,0.0069,0.0065,0,0,0,0,0,0,-0.025,-0.023,-0.0218,-0.0227,-0.0205,-0.0165,-0.0166,-0.0143,-0.0111,-0.0108,-0.0054,-0.0041,-0.0011,0.0024,0.0014,0.0068,0.0087,0.009,0.0038,0.0034,0.0031,0.0016,0.0051,0,0,0,0,0,-0.0263,-0.027,-0.024,-0.0248,-0.0241,-0.0204,-0.0194,-0.0173,-0.014,-0.0125,-0.0086,-0.004,0.0001,0.0024,0.0061,0.0089,0.013,0.01,0.0096,0.0093,0.009,0.0156,0.0158,0.0136,0.0136,0.0136,0,0,-0.0278,-0.0268,-0.0272,-0.0255,-0.0237,-0.0234,-0.0197,-0.0188,-0.018,-0.0119,-0.0099,-0.0054,0.0005,0.0036,0.0054,0.0065,0.012,0.0094,0.0091,0.0089,0.0157,0.0159,0.0161,0.0136,0.0136,0.0136,0,0,-0.0312,-0.0303,-0.032,-0.0309,-0.0289,-0.0262,-0.0263,-0.0227,-0.0206,-0.018,-0.0132,-0.0087,-0.0033,0.0015,0.0046,0.0048,0.0097,0.0059,0.0034,0.0097,0.01,0.0102,0.0149,0.0156,0.0061,0.0061,0.0061,0,-0.0332,-0.0347,-0.032,-0.0333,-0.0332,-0.028,-0.0295,-0.0263,-0.0218,-0.0201,-0.0184,-0.0088,-0.0041,0.0013,0.0015,0.004,0.0078,0.004,0.0092,0.0096,0.0099,0.0147,0.0156,0.0058,0.0058,0.0058,0.0059,0,-0.0376,-0.0388,-0.0398,-0.0396,-0.0389,-0.0393,-0.0352,-0.0332,-0.03,-0.0262,-0.021,-0.0138,-0.008,-0.0054,-0.0018,0.0032,0.005,0.0075,0.0097,0.0097,0.0148,0.0158,0.0053,0.0055,0.0055,0.0056,0,0,-0.0417,-0.0429,-0.0432,-0.0447,-0.0426,-0.0425,-0.0409,-0.0377,-0.0365,-0.0303,-0.0278,-0.0193,-0.0148,-0.011,-0.0051,0.001,0.0067,0.0047,0.0052,0.0084,0.0198,0.0181,0.0191,0.0101,0.0103,0.0104,0.0219,0,-0.0459,-0.0505,-0.0493,-0.0526,-0.0545,-0.0502,-0.0498,-0.046,-0.0408,-0.0367,-0.0273,-0.0227,-0.017,-0.0143,-0.0072,0.0034,0.0093,0.0033,0.0201,0.0206,0.0184,0.0202,0.0109,0.0227,0.0229,0.0231,0.0232,0,-0.0504,-0.0531,-0.0582,-0.0601,-0.0606,-0.0615,-0.0596,-0.0579,-0.0499,-0.0461,-0.0383,-0.0308,-0.0206,-0.0163,0.002,-0.0022,0.0077,0.0161,0.0168,0.0182,0.0209,0.0232,0.0251,0.025,0.0249,0.0247,0.0246,0,-0.0552,-0.0589,-0.0636,-0.0645,-0.0656,-0.067,-0.0664,-0.0611,-0.0598,-0.0512,-0.0486,-0.0356,-0.0289,-0.0144,0.0031,0.0027,0.023,0.0249,0.0329,0.0329,0.0336,0.0332,0.0373,0.0373,0.0373,0.0372,0.0372,0,-0.0598,-0.0635,-0.0667,-0.0695,-0.0753,-0.0732,-0.076,-0.0731,-0.068,-0.0661,-0.0538,-0.0485,-0.0279,-0.0136,0.0017,0.0203,0.0224,0.0326,0.0361,0.0306,0.0297,0.0343,0.0338,0.0377,0.0376,0.0375,0.0374,0,-0.0636,-0.0657,-0.0719,-0.0759,-0.0781,-0.0818,-0.084,-0.0842,-0.0787,-0.0754,-0.0731,-0.057,-0.0381,-0.0175,0.0069,0.0177,0.0359,0.0419,0.0335,0.0362,0.0417,0.0407,0.0514,0.0514,0.0515,0.0515,0.0515,0,-0.0656,-0.0693,-0.0779,-0.0825,-0.085,-0.0899,-0.0933,-0.0906,-0.0897,-0.08,-0.0781,-0.0604,-0.0477,-0.0139,0.0068,0.0353,0.0391,0.0469,0.0452,0.041,0.0433,0.0423,0.0413,0.0516,0.0516,0.0516,0.0516,0,-0.0691,-0.0728,-0.0778,-0.0885,-0.0945,-0.1001,-0.1034,-0.1036,-0.0983,-0.0945,-0.0803,-0.0617,-0.0403,-0.0142,0.0078,0.0282,0.0409,0.0474,0.0474,0.0459,0.0414,0.0434,0.0424,0.0518,0.0518,0.0517,0.0517,0,-0.0711,-0.076,-0.0837,-0.0923,-0.101,-0.1063,-0.1079,-0.1049,-0.103,-0.0913,-0.087,-0.0622,-0.048,-0.0178,0.0026,0.0222,0.0269,0.0315,0.0325,0.0325,0.0234,0.0147,0.0201,0,0,0,0,0,-0.072,-0.0778,-0.0867,-0.0961,-0.1047,-0.1094,-0.1128,-0.1119,-0.1077,-0.0985,-0.092,-0.0714,-0.0385,-0.0236,-0.0041,0.002,0.0286,0.0251,0.034,0.0525,0.0524,0.0446,0,0,0,0,0,0,-0.0726,-0.0812,-0.0863,-0.0972,-0.1037,-0.1121,-0.1141,-0.1114,-0.1046,-0.0976,-0.0793,-0.0692,-0.0366,-0.0495,-0.0044,0.0016,0.0092,0.0409,0.0413,0.0526,0.0525,0.0523,0.0443,0,0,0,0,0]}]]